2022-147B (54228 NORAD) Tracking and Keplerian Element Data

This shows tracking and keplerian element data for the satellite.

Feedback or suggestion? Click here.




ElementValue
Catalog54228
Name2022-147B
Epoch Orbit207
Epoch Day322.63204263
Epoch Year2022
RAAN324.9725
Inclination97.6578
Eccentricity0.0012588
Argument of Perigee256.3695
Mean Anonmoly103.7574
Mean Motion14.92776305
Decay Rate0.00014054
L11 54228U 22147B 22322.63204263 .00014054 00000+0 13611-2 0 9991
L22 54228 97.6578 324.9725 0012588 256.3695 103.7574 14.92776305 2077



Live tracking and technical data element details for 2022-147B (NORAD 54228). 2022-147B can be tracked NOW for your location showing map with azimuth and elevation plus other details from your city location.







IsCatalogInMostPopularTable: catalog: 54228, numindb: 5
Update: records affected: 1



GetName: 54228 2022-147B

Hit Count: updated at: Sun, 04 Dec 2022 21:27:37 GMT